Weather History for Destin, FL

Change the Weather History Date:

Thursday, January 24, 2013

  Actual Average Record
Temperature  
Mean Temperature 61 °F -  
Max Temperature 68 °F 58 °F 73 °F (2002)
Min Temperature 53 °F 44 °F 19 °F (2003)
Degree Days  
Heating Degree Days 4    
Growing Degree Days 11 (Base 50)    
Moisture  
Dew Point 53 °F    
Average Humidity 74    
Maximum Humidity 89    
Minimum Humidity 59    
Precipitation  
Precipitation 0.00 in - - ()
Sea Level Pressure  
Sea Level Pressure 30.29 in    
Wind  
Wind Speed 3 mph (WSW)    
Max Wind Speed 13 mph    
Max Gust Speed 20 mph    
Visibility 10 miles    
Events      
Averages and records for this station are not official NWS values.
T = Trace of Precipitation, MM = Missing Value Source: NWS Daily Summary

Daily Weather History Graph

Daily Weather History Graph

Search for Another Location

Airport:

Trip Planner

Search our weather history database for the weather conditions in past years. The results will help you decide how hot, cold, wet, or windy it might be!

Date:

Astronomy

Jan. 24, 2013 Rise Set
Actual Time 6:40 AM CST 5:15 PM CST
Civil Twilight 6:15 AM CST 5:41 PM CST
Nautical Twilight 5:46 AM CST 6:10 PM CST
Astronomical Twilight 5:17 AM CST 6:38 PM CST
Moon 3:19 PM CST (1/24) 4:35 AM CST (1/24)
Length of Visible Light 11h 26m
Length of Day
10h 35m
Waxing Gibbous, 94% of the Moon is Illuminated
Jan 24
Waxing Gibbous
Jan 26
Full
Feb 3
Last Quarter
Feb 10
New
Feb 17
First Quarter

Hourly Weather History & Observations

Time (CST) Temp. Dew Point Humidity Pressure Visibility Wind Dir Wind Speed Gust Speed Precip Events Conditions
12:53 AM 55.9 °F 50.0 °F 80% 30.31 in 10.0 mi Calm Calm - N/A   Clear
1:53 AM 55.0 °F 50.0 °F 83% 30.29 in 10.0 mi Calm Calm - N/A   Clear
2:53 AM 57.0 °F 51.1 °F 81% 30.29 in 10.0 mi Calm Calm - N/A   Clear
3:53 AM 57.0 °F 51.1 °F 81% 30.28 in 10.0 mi Calm Calm - N/A   Clear
4:53 AM 55.9 °F 50.0 °F 80% 30.30 in 10.0 mi Calm Calm - N/A   Clear
5:53 AM 55.0 °F 50.0 °F 83% 30.31 in 10.0 mi Calm Calm - N/A   Clear
6:53 AM 54.0 °F 50.0 °F 86% 30.31 in 10.0 mi Calm Calm - N/A   Clear
7:53 AM 59.0 °F 51.1 °F 75% 30.32 in 10.0 mi Variable 4.6 mph - N/A   Clear
8:53 AM 63.0 °F 50.0 °F 63% 30.34 in 10.0 mi Variable 6.9 mph - N/A   Clear
9:53 AM 66.0 °F 51.1 °F 59% 30.34 in 10.0 mi Variable 6.9 mph - N/A   Clear
10:53 AM 66.9 °F 53.1 °F 61% 30.33 in 10.0 mi WSW 6.9 mph - N/A   Clear
11:53 AM 66.9 °F 54.0 °F 63% 30.30 in 10.0 mi SW 9.2 mph - N/A   Clear
12:53 PM 66.9 °F 55.0 °F 66% 30.27 in 10.0 mi SW 9.2 mph - N/A   Clear
1:53 PM 66.9 °F 55.0 °F 66% 30.25 in 10.0 mi WSW 12.7 mph 19.6 mph N/A   Partly Cloudy
2:53 PM 68.0 °F 55.9 °F 65% 30.25 in 10.0 mi WSW 9.2 mph - N/A   Clear
3:53 PM 66.9 °F 55.9 °F 68% 30.24 in 10.0 mi Variable 6.9 mph - N/A   Clear
4:53 PM 64.9 °F 55.9 °F 73% 30.25 in 10.0 mi Variable 4.6 mph - N/A   Mostly Cloudy
5:53 PM 64.0 °F 55.9 °F 75% 30.25 in 10.0 mi Variable 3.5 mph - N/A   Clear
6:53 PM 64.0 °F 55.9 °F 75% 30.27 in 10.0 mi Variable 3.5 mph - N/A   Clear
7:53 PM 63.0 °F 55.9 °F 78% 30.28 in 10.0 mi Calm Calm - N/A   Clear
8:53 PM 61.0 °F 54.0 °F 78% 30.28 in 10.0 mi Calm Calm - N/A   Clear
9:53 PM 61.0 °F 53.1 °F 75% 30.29 in 10.0 mi Calm Calm - N/A   Scattered Clouds
10:53 PM 60.1 °F 54.0 °F 80% 30.29 in 10.0 mi Calm Calm - N/A   Overcast
11:53 PM 53.1 °F 50.0 °F 89% 30.28 in 9.0 mi Calm Calm - N/A   Clear